Regional Weather Roundup
Issued by NWS Cleveland, OH

Home | Current Version | Previous Version | Graphics & Text | Print | Product List | Glossary On
Versions: 1 2 3 4 5 6 7 8 9 10 11 12 13 14 15 16 17 18 19 20 21 22 23 24 25 26 27 28 29 30 31 32 33 34 35 36 37 38 39 40 41 42 43 44 45 46 47 48 49 50
000
ASUS41 KCLE 230502
RWRCLE
OHIO REGIONAL WEATHER ROUNDUP
NATIONAL WEATHER SERVICE CLEVELAND, OH
100 AM EDT WED APR 23 2014

NOTE: "FAIR" INDICATES FEW OR NO CLOUDS BELOW 12,000 FEET WITH NO
SIGNIFICANT WEATHER AND/OR OBSTRUCTIONS TO VISIBILITY.

OHZ001>008-015>018-024>027-034-035-043-044-230600-
   NORTHWEST OHIO

CITY           SKY/WX    TMP DP  RH WIND       PRES   REMARKS
DEFIANCE       CLEAR     40  29  64 NW9       29.98R
FINDLAY        CLEAR     41  29  62 NW9       29.94R
TOLEDO EXPRESS CLEAR     42  28  57 NW13      29.96R
TOLEDO EXEC    CLEAR     43  27  53 NW14      29.96R
LIMA           CLEAR     40  31  70 NW8       29.95S
$$

OHZ009>014-019>023-028>033-038-089-230600-
   NORTHEAST OHIO

CITY           SKY/WX    TMP DP  RH WIND       PRES   REMARKS
CLE-HOPKINS    CLOUDY    44  34  67 NW15G21   29.93R
CLE-LAKEFRONT  CLOUDY    42  35  76 NW18      29.88F
CUY CO. ARPT   NOT AVBL
LORAIN-ELYRIA  CLOUDY    45  32  60 N18G25    29.92R
ASHTABULA      CLOUDY    38  33  82 NW10      29.87R
AKRON-CANTON   CLOUDY    43  32  65 NW15      29.87S
WOOSTER        CLOUDY    43  33  68 N15       29.89R
MANSFIELD      CLOUDY    43  32  65 NW13G23   29.90S
YOUNGSTOWN     LGT RAIN  39  35  86 NW15G22   29.85R
$$

OHZ042-051>053-060>062-070>072-077>081-230600-
  SOUTHWEST OHIO

CITY           SKY/WX    TMP DP  RH WIND       PRES   REMARKS
CINC-COVINGTON CLEAR     46  31  55 N5        29.98S
CINC-LUNKEN    CLEAR     47  30  51 CALM      29.99S
HAMILTON       CLEAR     41  33  73 CALM      29.99S
DAYTON         CLEAR     42  32  67 NW9       29.98R
WRIGHT-PAT AFB CLEAR     45  31  58 NW12      29.96S
DAYTON GENERAL CLEAR     45  31  58 N10       29.96S
WILMINGTON     CLEAR     43  29  57 NW8       29.95S
$$

OHZ036-037-039>041-045>050-054>059-063>069-073>076-082>088-230600-
  CENTRAL AND SOUTHEAST OHIO

CITY           SKY/WX    TMP DP  RH WIND       PRES   REMARKS
COLUMBUS       PTCLDY    47  31  53 N16G22    29.92R
OSU AIRPORT    CLEAR     43  31  62 NW12      29.93R
BOLTON FIELD   NOT AVBL
RICKENBACK AFB NOT AVBL
NEWARK         PTCLDY    45  32  60 N9        29.90R
MARION         MOCLDY    41  30  65 NW9       29.93R
LANCASTER      CLOUDY    48  33  56 NW9       29.91R
ZANESVILLE     PTCLDY    47  33  58 NW10      29.88R
NEW PHILLY     CLOUDY    45  32  60 N13G20    29.88S
$$



USA.gov is the U.S. government's official web portal to all federal, state and local government web resources and services.